Flag for U.S.A. Weather past 2 weeks in Savannah, Georgia, U.S.A.

Now
72 °F

Sunny.


Feels Like: 75 °F
Forecast: 65 / 79 °F
Wind: 13 mph from East

Location: Hunter U. S. Army Airfield

Current Time: May 6, 2015 at 7:46:52 PM

Latest Report: May 6, 2015 at 6:58 PM


Visibility: 10 mi

Pressure: 30.07 "Hg

Humidity: 69%

Dew point: 62 °F

Location of SavannahLocation

Historic Weather in Savannah — Graph

°F

Savannah temperature yesterday

Maximum temperature yesterday: 78 °F (at 3:58 PM)
Minimum temperature yesterday: 62 °F (at 3:58 AM)
Average temperature yesterday: 71 °F

Past Weeks' High & Low Weather Summary

 TemperatureHumidityPressure
High88 °F (Apr 26, 4:58 PM)100% (Apr 25, 12:00 PM)30.31 "Hg (Apr 25, 12:00 PM)
Low48 °F (May 2, 5:58 AM)27% (Apr 24, 10:58 AM)29.60 "Hg (Apr 26, 4:58 PM)
Average67 °F71%29.94 "Hg
* Reported Apr 21 5:58 PM — May 6 5:58 PM, Savannah, Weather by CustomWeather, © 2015

Note: Actual official high and low records may vary slightly from our data, if they occured in-between our weather recording intervals... More about our weather records

Advertising

Savannah weather history for previous 24 hours

 ConditionsComfort  
Time TempWeatherWind HumidityBarometerVisibility
5:58 PM
Wed, May 6
76 °FSunny.14 mph58%30.08 "Hg10 mi
4:58 PM75 °FPassing clouds.15 mph61%30.08 "Hg10 mi
3:58 PM78 °FPassing clouds.15 mph63%30.08 "Hg10 mi
2:58 PM79 °FScattered clouds.13 mph60%30.10 "Hg10 mi
1:58 PM77 °FScattered clouds.7 mph59%30.12 "Hg10 mi
12:58 PM77 °FBroken clouds.13 mph59%30.13 "Hg10 mi
11:58 AM75 °FScattered clouds.10 mph68%30.15 "Hg10 mi
10:58 AM75 °FSunny.10 mph68%30.15 "Hg10 mi
9:58 AM72 °FSunny.7 mph78%30.15 "Hg10 mi
8:58 AM68 °FPartly sunny.3 mph87%30.14 "Hg10 mi
7:58 AM66 °FScattered clouds.5 mph89%30.14 "Hg10 mi
6:58 AM64 °FClear.3 mph95%30.14 "Hg10 mi
5:58 AM64 °FClear.5 mph97%30.13 "Hg10 mi
4:58 AM65 °FClear.No wind97%30.14 "Hg10 mi
3:58 AM65 °FClear.1 mph96%30.15 "Hg10 mi
2:58 AM65 °FClear.No wind92%30.16 "Hg10 mi
1:58 AM67 °FClear.2 mph89%30.18 "Hg10 mi
12:58 AM68 °FClear.2 mph86%30.20 "Hg10 mi
11:58 PM
Tue, May 5
70 °FPassing clouds.3 mph80%30.20 "Hg10 mi
10:58 PM70 °FPassing clouds.5 mph79%30.22 "Hg10 mi
9:58 PM70 °FPassing clouds.6 mph79%30.22 "Hg10 mi
8:58 PM71 °FScattered clouds.8 mph72%30.21 "Hg10 mi
7:58 PM72 °FScattered clouds.12 mph66%30.21 "Hg10 mi
Weather by CustomWeather, © 2015

See weather overviewHow to use our weather pages